Location: Bucquoy
(50.1391°N, 2.7097°E)
Time: 02:55:11
(UTC+00:00)

Cosmos 1605 Rocket - Pass Details

Date: 06 May 2021
Orbit: 946 x 1005 km, 82.9° (Epoch: 22 June)

Event Time Altitude Azimuth Distance (km) Brightness Sun altitude
Rises 01:34:35 0° 347° (NNW) 3,654 7.8 -19.1°
Reaches altitude 10° 01:37:07 10° 344° (NNW) 2,711 7.0 -18.9°
Maximum altitude 01:43:11 60° 267° (W) 1,107 4.1 -18.5°
Enters shadow 01:46:23 29° 199° (SSW) 1,714 4.7 -18.2°
